Regional Weather Roundup
Issued by NWS Burlington, VT

Home | Current Version | Previous Version | Text Only | Print | Product List | Glossary On
Versions: 1 2 3 4 5 6 7 8 9 10 11 12 13 14 15 16 17 18 19 20 21 22 23 24 25 26 27 28 29 30 31 32 33 34 35 36 37 38 39 40 41 42 43 44 45 46 47 48 49 50
000
ASUS41 KBTV 261930
RWRBTV
VERMONT REGIONAL WEATHER ROUNDUP
NATIONAL WEATHER SERVICE BURLINGTON VT
300 PM EDT MON JUN 26 2017

NOTE: "FAIR" INDICATES FEW OR NO CLOUDS BELOW 12,000 FEET WITH NO
SIGNIFICANT WEATHER AND/OR OBSTRUCTIONS TO VISIBILITY.

* THESE REPORTS ARE NOT UNDER NWS QUALITY CONTROL AND/OR DO NOT
  REPORT WEATHER SUCH AS PRECIPITATION AND FOG.

VTZ001>019-262000-
_____VERMONT_____


CITY           SKY/WX    TMP DP  RH WIND       PRES   REMARKS
BURLINGTON     MOSUNNY   73  45  36 NW7       29.95S
MONTPELIER     PTSUNNY   67  47  48 VRB6      29.99F
MORRISVILLE    CLOUDY    65  46  50 E5        29.96F
ST. JOHNSBURY*   N/A     68  48  48 MISG      29.93F
LYNDONVILLE*   PTSUNNY   67  46  47 SW8       29.97S
MIDDLEBURY*    FAIR      67  51  56 SW3       29.96S
RUTLAND*       LGT RAIN  67  51  56 S5        29.96F
SPRINGFIELD    PTSUNNY   70  49  47 VRB5      29.96F
HIGHGATE*      FAIR      72  48  43 NW5       29.94S
NEWPORT*       FAIR      67  45  44 SW14      29.96S
BENNINGTON     PTSUNNY   70  51  51 W9        29.97S
UNION VILLAGE*   N/A     73 N/A N/A MISG        N/A

_____LAKE CHAMPLAIN_____


CITY           SKY/WX    TMP DP  RH WIND       PRES   REMARKS
BURTON ISLAND*   N/A     68  46  45 S6          N/A
DIAMOND ISL*     N/A     68  46  45 NW6         N/A

$$

NYZ007-026>031-035-052-083-087-262000-
_____NORTHERN NEW YORK_____


CITY           SKY/WX    TMP DP  RH WIND       PRES   REMARKS
PLATTSBURGH    MOSUNNY   72  49  44 SE8       29.94F
SARANAC LAKE   CLOUDY    63  45  51 SW5       29.95F
MASSENA        MOSUNNY   69  47  45 VRB6      29.95F
OGDENSBURG*    CLOUDY    71  49  46 CALM      29.94S
WATERTOWN      MOSUNNY   68  54  60 SW10      29.95F
FT DRUM        MOSUNNY   67  53  60 CALM      29.94F
ALBANY         MOSUNNY   71  54  54 N9        29.96S
GLENS FALLS    MOSUNNY   72  54  53 S13       29.94S

$$
NHZ002-005-011-262000-
_____NEW HAMPSHIRE_____


CITY           SKY/WX    TMP DP  RH WIND       PRES   REMARKS
LEBANON        PTSUNNY   75  48  38 NW9       29.94F
KEENE          PTSUNNY   71  50  47 NW6       29.96F
MT WASHINGTON  FOG       39  39 100 W25         N/A  VSB 0   WCI  28
PLYMOUTH       FAIR      70  48  45 W3        29.94F
WHITEFIELD     CLOUDY    67  48  50 CALM      29.96S

$$

_____REGIONAL QUEBEC LOCATIONS_____


CITY           SKY/WX    TMP DP  RH WIND       PRES   REMARKS
MONTREAL       MOSUNNY   70  43  37 W15G22    29.93S
QUEBEC CITY    MOSUNNY   68  41  37 W13G20    29.88S
SHERBROOKE     PTSUNNY   64  48  55 W13G21    29.92R

_____REGIONAL ONTARIO LOCATIONS_____


CITY           SKY/WX    TMP DP  RH WIND       PRES   REMARKS
OTTAWA         MOSUNNY   68  45  42 E3        29.94F

______KEY______
VSB  - VISIBILITY IN MILES
WCI  - WIND CHILL INDEX
HX   - HEAT INDEX
$$
NNNN



USA.gov is the U.S. government's official web portal to all federal, state and local government web resources and services.